FW4340 Weather Reports


Display with metric or nautical units.
time (UTC)temp
F
wind
direction
speed
MPH
gust
MPH
rain 1hr
in
rain 24hr
in
rain mn
in
humidity
%
barometer
mb
20260503004530 51 347 0.0 0.0 0.00 0.02 0.00 91 1008.9
20260503003029 51 359 0.0 0.0 0.00 0.02 0.00 91 1009.1
20260503001529 51 347 0.0 0.0 0.00 0.02 0.00 91 1009.1
20260503000026 51 359 0.0 0.0 0.00 0.02 0.00 91 1009.2
20260502234524 52 347 0.0 0.0 0.00 0.02 0.00 91 1009.3
20260502233019 52 347 0.0 2.0 0.00 0.02 0.00 91 1009.3
20260502231515 52 347 1.0 3.0 0.00 0.02 0.00 91 1009.4
20260502230011 52 359 1.0 3.0 0.00 0.02 0.00 90 1009.3
20260502224509 52 347 1.0 3.0 0.00 0.02 0.02 90 1009.4
20260502223007 52 26 2.0 4.0 0.00 0.02 0.02 90 1009.4
20260502221507 52 26 3.0 5.0 0.00 0.02 0.02 90 1009.6
20260502220006 52 62 2.0 4.0 0.00 0.02 0.02 91 1009.7
20260502214504 51 118 0.0 2.0 0.00 0.02 0.02 90 1009.7
20260502213004 52 118 1.0 2.0 0.00 0.02 0.02 90 1009.7
20260502211513 52 118 1.0 3.0 0.00 0.02 0.02 90 1009.8
20260502210006 52 118 1.0 3.0 0.00 0.02 0.02 90 1009.8
20260502204502 52 118 2.0 4.0 0.00 0.02 0.02 89 1009.9
20260502203000 52 118 3.0 6.0 0.00 0.02 0.02 89 1009.9
20260502201600 52 108 3.0 7.0 0.00 0.02 0.02 89 1010.0
20260502200059 53 99 4.0 8.0 0.00 0.02 0.02 88 1010.0
20260502194559 53 116 6.0 9.0 0.00 0.02 0.02 88 1010.0
20260502193059 53 106 6.0 10.0 0.00 0.02 0.02 87 1010.1
20260502191558 53 117 6.0 8.0 0.00 0.02 0.02 86 1010.0
20260502190058 53 128 5.0 8.0 0.00 0.02 0.02 86 1010.0
20260502184556 53 116 4.0 9.0 0.00 0.03 0.02 85 1010.1
20260502183059 54 119 5.0 9.0 0.00 0.03 0.02 84 1010.1
20260502181555 54 108 4.0 8.0 0.00 0.03 0.02 84 1010.1
20260502163054 56 71 4.0 10.0 0.00 0.04 0.02 79 1010.5
20260502161552 56 67 6.0 11.0 0.00 0.04 0.02 78 1010.7
20260502151539 55 54 6.0 10.0 0.00 0.06 0.02 82 1011.4
20260502123022 54 54 6.0 9.0 0.00 0.12 0.01 84 1013.0
20260502121518 54 56 7.0 10.0 0.00 0.12 0.01 84 1013.3
20260502114515 54 52 8.0 10.0 0.00 0.20 0.01 83 1013.6
20260502113018 54 52 8.0 10.0 0.00 0.20 0.01 84 1013.7
20260502111515 54 50 8.0 10.0 0.00 0.20 0.01 84 1013.6
20260502110018 54 66 6.0 9.0 0.00 0.20 0.01 83 1013.5
20260502104533 54 48 5.0 8.0 0.00 0.22 0.01 84 1013.5
20260502103010 54 51 4.0 8.0 0.00 0.22 0.01 84 1013.5
20260502101508 54 60 4.0 6.0 0.00 0.22 0.01 85 1013.6
20260502091509 52 54 5.0 6.0 0.00 0.22 0.01 88 1014.2
20260502070058 53 287 0.0 4.0 0.00 0.22 0.01 88 1014.4
20260502064606 52 280 0.0 3.0 0.00 0.22 0.01 89 1014.4
20260502063052 52 160 4.0 5.0 0.00 0.22 0.01 88 1014.2
20260502061551 52 185 1.0 5.0 0.00 0.22 0.01 91 1014.2
20260502060046 50 163 5.0 7.0 0.00 0.22 0.01 91 1014.1
20260502054546 49 198 2.0 3.0 0.00 0.22 0.01 91 1014.1
20260502053044 48 177 1.0 4.0 0.00 0.22 0.01 91 1014.2
20260502051607 48 287 0.0 3.0 0.00 0.22 0.01 90 1014.3
20260502050043 47 158 2.0 5.0 0.00 0.22 0.01 90 1014.2
20260502044542 48 154 3.0 5.0 0.00 0.22 0.01 90 1014.3
20260502043044 47 174 3.0 5.0 0.00 0.22 0.01 89 1014.2
20260502041541 48 272 1.0 3.0 0.00 0.22 0.01 89 1014.2
20260502040039 48 359 2.0 4.0 0.00 0.22 0.01 89 1014.3
20260502034544 48 197 1.0 4.0 0.00 0.22 0.01 89 1014.4
20260502033048 49 171 0.0 1.0 0.00 0.22 0.01 89 1014.5
20260502031542 49 359 2.0 3.0 0.00 0.22 0.01 89 1014.6
20260502030032 48 197 3.0 5.0 0.00 0.22 0.01 89 1014.6
20260502024531 49 230 2.0 3.0 0.00 0.22 0.01 89 1014.7
20260502023029 49 199 3.0 4.0 0.00 0.22 0.01 88 1014.8
20260502021527 49 212 2.0 5.0 0.01 0.22 0.01 89 1015.0
20260502020024 49 197 3.0 8.0 0.01 0.22 0.01 89 1015.1
20260502014527 50 214 3.0 11.0 0.01 0.22 0.01 89 1015.1
20260502013022 50 200 8.0 11.0 0.01 0.22 0.01 89 1015.1
20260502011528 49 224 5.0 7.0 0.00 0.21 0.00 89 1015.3
20260502010019 49 206 4.0 9.0 0.00 0.21 0.00 89 1015.4